Home > Weather > Almería > Past weeks

Flag for Spain Past Weather in Almería, Spain — Yesterday and Last 2 Weeks

Now
78 °F

Warm.


Feels Like: 80 °F
Forecast: 70 / 87 °F
Wind: 8 mph from East

Location: Almeria / Aeropuerto

Current Time: Jul 24, 2016 at 1:25:16 AM

Latest Report: Jul 24, 2016 at 12:00 AM


Visibility: N/A

Pressure: 30.06 "Hg

Humidity: 54%

Dew Point: 60 °F

Location of AlmeríaLocation

Past Weather in Almería — Graph

°F

Almería Temperature Yesterday

Maximum temperature yesterday: 91 °F (at 1:00 PM)
Minimum temperature yesterday: 76 °F (at 3:00 AM)
Average temperature yesterday: 83 °F

High & Low Weather Summary for the Past Weeks

 TemperatureHumidityPressure
High98 °F (Jul 9, 5:00 PM)92% (Jul 22, 3:00 AM)30.14 "Hg (Jul 22, 3:00 AM)
Low72 °F (Jul 11, 6:00 AM)23% (Jul 17, 12:00 PM)29.82 "Hg (Jul 22, 5:00 AM)
Average81 °F59%30.00 "Hg
* Reported Jul 9 12:00 AM — Jul 24 12:00 AM, Almería, Weather by CustomWeather, © 2016

Note: Actual official high and low records may vary slightly from our data, if they occured in-between our weather recording intervals... More about our weather records

Advertising

Almería Weather History for the Previous 24 Hours

Scroll right to see more
 ConditionsComfort  
Time TempWeatherWind HumidityBarometerVisibility
12:00 AM
Sun, Jul 24
78 °FWarm.8 mph54%30.06 "HgN/A
11:00 PM
Sat, Jul 23
78 °FWarm.16 mph59%30.05 "HgN/A
10:00 PM79 °FWarm.20 mph62%30.02 "HgN/A
9:00 PM80 °FWarm.22 mph59%30.01 "HgN/A
8:00 PM83 °FPassing clouds.24 mph51%29.98 "Hg25 mi
7:00 PM86 °FWarm.26 mph46%29.96 "HgN/A
6:00 PM88 °FWarm.26 mph49%29.96 "HgN/A
5:00 PM89 °FPassing clouds.25 mph46%29.97 "Hg22 mi
4:00 PM90 °FHot.25 mph43%29.97 "HgN/A
3:00 PM90 °FHot.23 mph47%29.98 "HgN/A
2:00 PM90 °FPassing clouds.23 mph42%29.99 "Hg22 mi
1:00 PM91 °FHot.18 mph38%29.99 "HgN/A
12:00 PM90 °FHot.16 mph41%29.99 "HgN/A
11:00 AM87 °FSunny.16 mph44%30.01 "Hg25 mi
10:00 AM83 °FWarm.6 mph51%30.01 "HgN/A
9:00 AM81 °FWarm.5 mph58%30.00 "HgN/A
8:00 AM79 °FPassing clouds.12 mph62%30.00 "Hg25 mi
7:00 AM77 °FWarm.13 mph67%29.99 "HgN/A
6:00 AM78 °FWarm.15 mph65%29.98 "HgN/A
5:00 AM77 °FClear.2 mph63%29.98 "Hg19 mi
4:00 AM76 °FMild.7 mph69%29.97 "HgN/A
3:00 AM76 °FMild.5 mph72%29.98 "HgN/A
2:00 AM81 °FWarm.12 mph52%29.98 "HgN/A
1:00 AM80 °FWarm.14 mph53%29.96 "HgN/A
Weather by CustomWeather, © 2016

See weather overviewHow to use our weather pages